Regional Weather Roundup
Issued by NWS

Home | Current Version | Previous Version | Text Only | Print | Product List | Glossary On
Versions: 1 2 3 4 5 6 7 8 9 10 11 12 13 14 15 16 17 18 19 20 21 22 23 24 25 26 27
000
ASUS45 KREV 201110
RWRNV
NEVADA REGIONAL WEATHER ROUNDUP
NATIONAL WEATHER SERVICE RENO NV
300 AM PST SAT JAN 20 2018

NOTE: "FAIR" INDICATES FEW OR NO CLOUDS BELOW 12,000 FEET WITH NO
SIGNIFICANT WEATHER AND/OR OBSTRUCTIONS TO VISIBILITY.

NVZ001-003-004-201200-
WESTERN NEVADA

CITY           SKY/WX    TMP DP  RH WIND       PRES   REMARKS
RENO           PTCLDY    28  21  75 CALM      30.01S
CARSON CITY    CLOUDY    30  19  64 W8        30.01S
MINDEN         FAIR      19  19 100 S5        30.01F FOG
FALLON         MOCLDY    27   3  35 NW8       30.00R
LOVELOCK       CLEAR     26  17  68 NE9       30.01R
HAWTHORNE      CLOUDY    34  16  47 N10G17    29.96S
$$

NVZ002-CAZ072-073-201200-
NORTHERN AND CENTRAL SIERRA

CITY           SKY/WX    TMP DP  RH WIND       PRES   REMARKS
S. LAKE TAHOE  CLOUDY    22  19  89 CALM      29.94S
TRUCKEE        FOG       19  18  93 CALM      29.98S VSB 3/4
SQUAW VLY 8000 NOT AVBL
SUSANVILLE     CLEAR    N/A N/A N/A MISG      30.04S
BLUE CANYON    CLEAR     25  19  78 E5        29.96F
MAMMOTH LAKES  CLOUDY    23  18  80 W10       29.91S
$$

NVZ030-031-036-201200-
NORTHERN NEVADA

CITY           SKY/WX    TMP DP  RH WIND       PRES   REMARKS
ELKO           CLOUDY    25  23  92 W3        29.91F
WINNEMUCCA     PTCLDY    21  16  81 NW6       30.00S
WENDOVER       CLOUDY    28  27  96 CALM      29.92F
$$

NVZ035-037-201200-
CENTRAL NEVADA

CITY           SKY/WX    TMP DP  RH WIND       PRES   REMARKS
ELY            LGT SNOW  23  22  96 N16       29.85S VSB 3/4
EUREKA           N/A     24  22  91 N9        29.87F
$$

NVZ013-014-201200-
SOUTH CENTRAL NEVADA

CITY           SKY/WX    TMP DP  RH WIND       PRES   REMARKS
TONOPAH        CLOUDY    29  24  82 N13       29.88F
$$

NVZ017-020-022-201200-
SOUTHERN NEVADA

CITY           SKY/WX    TMP DP  RH WIND       PRES   REMARKS
LAS VEGAS      CLOUDY    54  34  46 SW12G23   29.75S
N. LAS VEGAS   CLOUDY    55  35  47 NW16G33   29.73R
NELLIS AFB     CLOUDY    56  35  45 S17G25    29.72F
HENDERSON      CLOUDY    53  34  48 SW17G24   29.78S
MERCURY        CLOUDY    40  32  73 NE16      29.80F
$$




USA.gov is the U.S. government's official web portal to all federal, state and local government web resources and services.